• In Portugal
  • List of Countries
  • For 7 days
  • Water Temperature
  • Satellite Maps
  • Weather Map
  • Weather Widgets
  • user-avatar
    Login

    Hourly Weather Nara

    Today, 24 September, Monday

    Time Temperature Precipitation Wind Pressure Humidity
    00:00 +22°C° 0 mm 1 mps 732 mmHg 79%
    01:00 +22°C° 0 mm 1 mps 732 mmHg 79%
    02:00 +22°C° 0 mm 1 mps 732 mmHg 80%
    03:00 +22°C° 0 mm 1 mps 731 mmHg 82%
    04:00 +22°C° 0 mm 1 mps 731 mmHg 82%
    05:00 +20°C° 0 mm 0 mps 732 mmHg 81%
    06:00 +20°C° 0 mm 0 mps 732 mmHg 81%
    07:00 +21°C° 0 mm 0 mps 732 mmHg 75%
    08:00 +23°C° 0 mm 0 mps 732 mmHg 69%
    09:00 +23°C° 0 mm 0 mps 732 mmHg 64%
    10:00 +26°C° 0 mm 1 mps 732 mmHg 60%
    11:00 +27°C° 0 mm 1 mps 732 mmHg 57%
    12:00 +27°C° 0 mm 2 mps 732 mmHg 53%
    13:00 +27°C° 0 mm 2 mps 732 mmHg 51%
    14:00 +27°C° 0 mm 2 mps 731 mmHg 50%
    15:00 +27°C° 0 mm 1 mps 731 mmHg 55%
    16:00 +26°C° 0 mm 2 mps 731 mmHg 58%
    17:00 +25°C° 0 mm 2 mps 731 mmHg 60%
    18:00 +24°C° 0 mm 2 mps 732 mmHg 63%
    19:00 +24°C° 0 mm 2 mps 732 mmHg 64%
    20:00 +23°C° 0 mm 2 mps 732 mmHg 66%
    21:00 +21°C° 0 mm 2 mps 732 mmHg 67%
    22:00 +21°C° 0 mm 2 mps 732 mmHg 67%
    23:00 +21°C° 0 mm 2 mps 732 mmHg 67%

    Tomorrow, 25 September, Tuesday

    Time Temperature Precipitation Wind Pressure Humidity
    00:00 +21°C° 0 mm 2 mps 732 mmHg 67%
    01:00 +21°C° 0.1 mm 2 mps 731 mmHg 70%
    02:00 +20°C° 0.1 mm 2 mps 731 mmHg 72%
    03:00 +20°C° 0.1 mm 2 mps 731 mmHg 75%
    04:00 +20°C° 0.5 mm 2 mps 731 mmHg 78%
    05:00 +19°C° 0.5 mm 2 mps 731 mmHg 80%
    06:00 +19°C° 0.5 mm 2 mps 731 mmHg 83%
    07:00 +19°C° 1.7 mm 2 mps 731 mmHg 83%
    08:00 +19°C° 1.7 mm 2 mps 731 mmHg 84%
    09:00 +19°C° 1.7 mm 2 mps 732 mmHg 85%
    10:00 +20°C° 0.9 mm 2 mps 732 mmHg 83%
    11:00 +20°C° 0.9 mm 2 mps 732 mmHg 81%
    12:00 +21°C° 0.9 mm 2 mps 731 mmHg 80%
    13:00 +23°C° 0 mm 2 mps 731 mmHg 75%
    14:00 +24°C° 0 mm 2 mps 731 mmHg 71%
    15:00 +25°C° 0 mm 2 mps 730 mmHg 66%
    16:00 +24°C° 0 mm 2 mps 730 mmHg 70%
    17:00 +23°C° 0 mm 2 mps 730 mmHg 73%
    18:00 +21°C° 0 mm 3 mps 731 mmHg 77%
    19:00 +20°C° 0 mm 3 mps 731 mmHg 78%
    20:00 +20°C° 0 mm 3 mps 731 mmHg 80%
    21:00 +20°C° 0 mm 3 mps 731 mmHg 81%
    22:00 +19°C° 0 mm 3 mps 731 mmHg 82%
    23:00 +19°C° 0 mm 3 mps 731 mmHg 83%

    Day after tomorrow, 26 September, Wednesday

    Time Temperature Precipitation Wind Pressure Humidity
    00:00 +19°C° 0 mm 3 mps 731 mmHg 84%
    01:00 +19°C° 0 mm 3 mps 731 mmHg 85%
    02:00 +18°C° 0 mm 3 mps 731 mmHg 85%
    03:00 +18°C° 0 mm 3 mps 730 mmHg 86%
    04:00 +18°C° 0 mm 3 mps 730 mmHg 86%
    05:00 +18°C° 0 mm 3 mps 731 mmHg 86%
    06:00 +18°C° 0 mm 3 mps 731 mmHg 86%
    07:00 +20°C° 0 mm 3 mps 731 mmHg 81%
    08:00 +21°C° 0 mm 3 mps 731 mmHg 77%
    09:00 +22°C° 0 mm 3 mps 731 mmHg 72%
    10:00 +24°C° 0.1 mm 3 mps 731 mmHg 71%
    11:00 +25°C° 0.1 mm 3 mps 731 mmHg 69%
    12:00 +25°C° 0.1 mm 3 mps 731 mmHg 68%
    13:00 +25°C° 0.3 mm 3 mps 731 mmHg 70%
    14:00 +23°C° 0.3 mm 4 mps 730 mmHg 73%
    15:00 +23°C° 0.3 mm 4 mps 730 mmHg 75%
    16:00 +22°C° 0.3 mm 4 mps 730 mmHg 77%
    17:00 +22°C° 0.3 mm 4 mps 730 mmHg 80%
    18:00 +21°C° 0.3 mm 3 mps 730 mmHg 82%
    19:00 +21°C° 0.5 mm 4 mps 730 mmHg 83%
    20:00 +21°C° 0.5 mm 4 mps 730 mmHg 83%
    21:00 +21°C° 0.5 mm 4 mps 730 mmHg 84%
    22:00 +20°C° 1.9 mm 3 mps 730 mmHg 86%
    23:00 +20°C° 1.9 mm 3 mps 730 mmHg 87%

    27 September, Thursday

    Time Temperature Precipitation Wind Pressure Humidity
    00:00 +20°C° 1.9 mm 3 mps 729 mmHg 89%
    01:00 +20°C° 3.1 mm 3 mps 729 mmHg 89%
    02:00 +19°C° 3.1 mm 3 mps 728 mmHg 90%
    03:00 +19°C° 3.1 mm 3 mps 728 mmHg 91%
    04:00 +19°C° 4 mm 3 mps 728 mmHg 91%
    05:00 +19°C° 4 mm 3 mps 728 mmHg 91%
    06:00 +19°C° 4 mm 4 mps 728 mmHg 91%
    07:00 +19°C° 2.8 mm 4 mps 728 mmHg 91%
    08:00 +19°C° 2.8 mm 4 mps 728 mmHg 90%
    09:00 +19°C° 2.8 mm 4 mps 729 mmHg 89%
    10:00 +19°C° 3 mm 4 mps 728 mmHg 89%
    11:00 +18°C° 3 mm 3 mps 728 mmHg 89%
    12:00 +18°C° 3 mm 3 mps 728 mmHg 88%
    13:00 +18°C° 2.3 mm 3 mps 728 mmHg 88%
    14:00 +18°C° 2.3 mm 3 mps 728 mmHg 88%
    15:00 +18°C° 2.3 mm 3 mps 727 mmHg 88%
    16:00 +18°C° 0.8 mm 3 mps 728 mmHg 88%
    17:00 +18°C° 0.8 mm 2 mps 728 mmHg 89%
    18:00 +18°C° 0.8 mm 2 mps 728 mmHg 89%
    19:00 +18°C° 0.2 mm 2 mps 729 mmHg 88%
    20:00 +18°C° 0.2 mm 2 mps 729 mmHg 88%
    21:00 +18°C° 0.2 mm 2 mps 729 mmHg 88%
    22:00 +18°C° 0.1 mm 2 mps 729 mmHg 88%
    23:00 +17°C° 0.1 mm 2 mps 729 mmHg 89%

    28 September, Friday

    Time Temperature Precipitation Wind Pressure Humidity
    00:00 +17°C° 0.1 mm 2 mps 729 mmHg 89%
    01:00 +17°C° 0 mm 2 mps 729 mmHg 89%
    02:00 +17°C° 0 mm 2 mps 729 mmHg 90%
    03:00 +16°C° 0 mm 2 mps 729 mmHg 90%
    04:00 +16°C° 0 mm 2 mps 729 mmHg 90%
    05:00 +16°C° 0 mm 2 mps 729 mmHg 90%
    06:00 +16°C° 0 mm 2 mps 730 mmHg 90%
    07:00 +17°C° 0 mm 2 mps 730 mmHg 83%
    08:00 +19°C° 0 mm 2 mps 731 mmHg 77%
    09:00 +21°C° 0 mm 2 mps 731 mmHg 70%
    10:00 +23°C° 0 mm 2 mps 731 mmHg 63%
    11:00 +25°C° 0 mm 2 mps 731 mmHg 57%
    12:00 +26°C° 0 mm 2 mps 731 mmHg 50%
    13:00 +26°C° 0 mm 2 mps 731 mmHg 50%
    14:00 +26°C° 0 mm 3 mps 731 mmHg 50%
    15:00 +27°C° 0 mm 3 mps 730 mmHg 49%
    16:00 +25°C° 0 mm 3 mps 731 mmHg 56%
    17:00 +22°C° 0 mm 3 mps 731 mmHg 63%
    18:00 +21°C° 0 mm 3 mps 731 mmHg 70%
    19:00 +20°C° 0 mm 3 mps 732 mmHg 73%
    20:00 +19°C° 0 mm 2 mps 732 mmHg 76%
    21:00 +18°C° 0 mm 2 mps 732 mmHg 78%
    22:00 +18°C° 0 mm 2 mps 732 mmHg 79%
    23:00 +18°C° 0 mm 2 mps 732 mmHg 80%

    29 September, Saturday

    Time Temperature Precipitation Wind Pressure Humidity
    00:00 +17°C° 0 mm 2 mps 732 mmHg 82%
    01:00 +17°C° 0 mm 2 mps 732 mmHg 82%
    02:00 +17°C° 0 mm 2 mps 732 mmHg 83%
    03:00 +17°C° 0 mm 2 mps 732 mmHg 84%
    04:00 +17°C° 0 mm 2 mps 732 mmHg 84%
    05:00 +17°C° 0 mm 2 mps 732 mmHg 84%
    06:00 +16°C° 0 mm 2 mps 732 mmHg 85%
    07:00 +19°C° 0 mm 2 mps 732 mmHg 78%
    08:00 +21°C° 0 mm 2 mps 732 mmHg 72%
    09:00 +24°C° 0 mm 2 mps 733 mmHg 65%
    10:00 +25°C° 0 mm 1 mps 732 mmHg 61%
    11:00 +25°C° 0 mm 1 mps 732 mmHg 57%
    12:00 +26°C° 0 mm 1 mps 732 mmHg 53%
    13:00 +25°C° 0.4 mm 2 mps 731 mmHg 60%
    14:00 +24°C° 0.4 mm 2 mps 731 mmHg 67%
    15:00 +23°C° 0.4 mm 2 mps 730 mmHg 73%
    16:00 +23°C° 1.3 mm 2 mps 730 mmHg 76%
    17:00 +21°C° 1.3 mm 2 mps 730 mmHg 79%
    18:00 +21°C° 1.3 mm 1 mps 730 mmHg 82%
    19:00 +21°C° 1.5 mm 1 mps 730 mmHg 82%
    20:00 +21°C° 1.5 mm 1 mps 730 mmHg 83%
    21:00 +21°C° 1.5 mm 1 mps 730 mmHg 84%
    22:00 +21°C° 1 mm 1 mps 729 mmHg 85%
    23:00 +20°C° 1 mm 1 mps 729 mmHg 87%
    Show more